ROMMA est une association bénévole à but non lucratif. Votre soutien est indispensable : ADHERER à ROMMA ou FAIRE un DON

Challes-les-Eaux - (73, Savoie)

Trouée des Marches (325 m)   Longitude: 05° 58' E   Latitude: 45° 32' N Station romma n°148
 

Détail journalier du     <<     >>

Température Precipitation Humidité Pression Vent Dir Rafale Dir. rafale
Heure (°C) (mm) (%) (hPa) (km/h) (km/h)
01:00 9.209410192S6SO
02:00 8.509510202ESE11ESE
03:00 8.209510191ESE6ESE
04:00 8.209510201ESE6ESE
05:00 7.50.295102003SSE
06:00 8.009510202SE8S
07:00 7.809510202ESE11ESE
08:00 7.309510204ESE15ESE
09:00 7.209510204SE15ESE
10:00 7.909510203ESE11SE
11:00 10.908610202ESE15ESE
12:00 12.407610205ESE16ESE
13:00 14.106910194SE13ESE
14:00 15.306610183S13ESE
15:00 16.906310183SSE13ESE
16:00 17.805910172SO8S
17:00 17.805710162S8S
18:00 16.506710162SE6SSE
19:00 13.507610171SSO3SSO
20:00 11.6082101703SSO
21:00 10.7084101803SSO
22:00 9.708710181SSO8OSO
23:00 10.108810182SSO6E
minuit 10.308610191SE5SE

Graphique du 16-10-2019

 

Serveur OMMA